Regional Weather Roundup
Issued by NWS

Home | Current Version | Previous Version | Graphics & Text | Print | Product List | Glossary On
Versions: 1 2 3 4 5 6 7 8 9 10 11 12 13 14 15 16 17 18 19 20 21 22 23 24 25 26 27 28 29 30 31 32 33 34 35 36 37 38 39 40 41 42 43 44 45 46 47 48 49 50
000
ASUS43 KDTX 232001
RWRMI
MICHIGAN HOURLY REGIONAL WEATHER ROUNDUP
NATIONAL WEATHER SERVICE DETROIT/PONTIAC MI
400 PM EDT WED JUL 23 2014

NOTE: "FAIR" INDICATES FEW OR NO CLOUDS BELOW 12,000 FEET WITH NO
SIGNIFICANT WEATHER AND/OR OBSTRUCTION TO VISIBILITY.

MIZ047>049-052>055-059>063-066>070-074>076-081>083-232100-
SOUTHEAST LOWER MICHIGAN

CITY           SKY/WX    TMP DP  RH WIND       PRES   REMARKS
ADRIAN         CLOUDY    76  58  53 N9        30.05F
ALMA           CLOUDY    72  55  56 N12G18    30.09F
ANN ARBOR      CLOUDY    74  56  53 NE13      30.05F
BAD AXE        CLOUDY    66  55  67 NE13      30.10S
CARO           CLOUDY    70  60  69 N7        30.08F
DETROIT CITY   CLOUDY    71  55  56 N8        30.06S
DETROIT        CLOUDY    73  56  54 N15       30.05F
FLINT          PTSUNNY   75  55  49 N12G18    30.07F
GROSSE ILE     CLOUDY    72  57  60 NE12G20   30.03F
HILLSDALE      PTSUNNY   73  58  59 N10       30.07R
HOWELL         CLOUDY    69  55  60 NE7       30.07F

CITY           SKY/WX    TMP DP  RH WIND       PRES   REMARKS
JACKSON        CLOUDY    71  58  63 N7        30.07F
LAMBERTVILLE   CLOUDY    73  59  60 N8        30.04S
LANSING        MOSUNNY   74  55  51 N12G18    30.07F
LAPEER         CLOUDY    67  54  63 N7        30.08F
MASON          CLOUDY    73  58  60 N7        30.07F
MONROE         CLOUDY    73  61  64 N9        30.02F
MT. CLEMENS    CLOUDY    68  56  64 N13       30.05S
PONTIAC        CLOUDY    70  54  56 NE12      30.07S
PORT HOPE        N/A     66  54  65 N12G21    30.09S
PORT HURON     CLOUDY    63  55  77 N8G16     30.09R
TRI CITIES     PTSUNNY   74  55  51 N13       30.08F
TROY           CLOUDY    69  56  63 N10G17    30.07S
SAGINAW HB     PTSUNNY   72  57  60 N10       30.07F
$$
MIZ043>046-050>051-056>058-064>065-071>073-077>080-232100-
SOUTHWEST LOWER MICHIGAN

CITY           SKY/WX    TMP DP  RH WIND       PRES   REMARKS
BATTLE CREEK   PTSUNNY   73  55  53 N9        30.08F
BENTON HARBOR  MOSUNNY   67  59  75 N8G17     30.11F
BIG RAPIDS     CLOUDY    67  54  64 N9G18     30.12F
COLDWATER      CLOUDY    75  58  54 N8        30.06S
FREMONT        MOCLDY    73  55  52 N9G16     30.10F
HOLLAND        SUNNY     72  60  66 NW13G21   30.11S
GRAND RAPIDS   PTSUNNY   76  55  48 N9        30.09F
IONIA          MOCLDY    71  55  55 N7        30.07F
KALAMAZOO      CLOUDY    73  55  53 N10       30.08F
LUDINGTON      SUNNY     65  54  68 N13G21    30.15F
MARSHALL       PTSUNNY   72  57  58 N5        30.07F
MOUNT PLEASANT CLOUDY    70  55  60 NW7       30.10F
MUSKEGON       CLOUDY    71  57  61 VRB7      30.11S
SOUTH HAVEN    MOSUNNY   68  62  79 N17G23    30.10F
$$
MIZ016>042-232100-
NORTHERN LOWER MICHIGAN

CITY           SKY/WX    TMP DP  RH WIND       PRES   REMARKS
ALPENA         SUNNY     70  49  47 N14       30.12S
BEAVER ISLAND  SUNNY     70  51  50 N12G18    30.17S
BELLAIRE       CLOUDY    67  53  60 NW6       30.15S
CADILLAC       CLOUDY    63  54  71 NW8G16    30.14F
CHARLEVOIX     SUNNY     65  53  64 NW8       30.19S
FRANKFORT      SUNNY     65  50  58 N9G17     30.18S
GAYLORD        PTSUNNY   65  50  58 NW8       30.15S
GRAYLING       CLOUDY    67  55  65 N7        30.15S
HARBOR SPRINGS CLOUDY    67  55  64 S3        30.15S
HOUGHTON LAKE  CLOUDY    64  54  69 N8        30.14F
MANISTEE       SUNNY     64  50  59 NW10      30.16F
OSCODA         PTSUNNY   72  50  46 N15G23    30.08F
PELLSTON       CLOUDY    68  52  56 NE10      30.15F
ROGERS CITY    SUNNY     68  54  61 NW9G16    30.13F
TRAVERSE CITY  PTSUNNY   66  50  56 N15G21    30.16R
$$
MIZ007>008-015-232100-
EASTERN UPPER MICHIGAN

CITY           SKY/WX    TMP DP  RH WIND       PRES   REMARKS
KINROSS        SUNNY     66  50  55 NW20G25   30.14S
MACKINAC ISLAN SUNNY     69  51  53 N13       30.14S
NEWBERRY       SUNNY     67  50  54 NW14G20   30.18S
S. S. MARIE    CLOUDY    63  50  62 NW12G22   30.15R
MUNISING         N/A     61  50  67 NE7       30.23F
$$
MIZ004>006-011>014-085-232100-
CENTRAL UPPER MICHIGAN

CITY           SKY/WX    TMP DP  RH WIND       PRES   REMARKS
MANISTIQUE     MOSUNNY   72  48  42 N12G21    30.18S
ESCANABA       MOSUNNY   70  46  43 NE9G16    30.19S
MENOMINEE      PTSUNNY   68  50  52 E15       30.19S
SAWYER-GWINN   MOSUNNY   66  46  48 NE10      30.24S
$$
MIZ001>003-009>011-084-232100-
WESTERN UPPER MICHIGAN

CITY           SKY/WX    TMP DP  RH WIND       PRES   REMARKS
IRON MOUNTAIN  PTSUNNY   72  46  39 N9        30.20F
HOUGHTON       SUNNY     70  45  40 N9        30.23F
COPPER HARBOR    N/A     64  52  64 N9        30.22F
$$

ABBREVIATIONS USED IN REMARKS
   TC - TEMPERATURE IN CELSIUS
  WCI - WIND CHILL INDEX
   HX - HEAT INDEX
  VSB - VISIBILITY



USA.gov is the U.S. government's official web portal to all federal, state and local government web resources and services.